星链-33946 (STARLINK-33946)

导读

STARLINK-33946是美国SpaceX公司于2025年5月16日发射的星链低轨通信卫星,属于星链全球宽带互联网星座组网卫星。卫星采用平板太阳翼设计,搭载Ku/Ka波段通信载荷,配备氪工质霍尔推进器,具备自主避撞能力,设计寿命5-7年,退役后将受控离轨再入大气层烧毁。星链星座通过大规模低轨卫星组网,旨在提供全球覆盖的高速互联网接入服务,已在商业通信和部分军事领域得到应用。

基本信息
目录编号:
64034
目录名称:
STARLINK-33946
国际标识:
2025-102N
轨道中心:
EARTH
卫星名称:
星链-33946
卫星全名:
星链-33946 (STARLINK-33946)
卫星状态:
在轨 (已飞行394 天)
发射日期:
2025-05-16 UTC
国别 :
美国 (US)
星等 :
--
轨道信息
数据来源 国际轨道数据
星历时间: 2026-06-13T21:30:14+0800
14小时前
查看轨道信息
半长轴: 6950.163km
偏心率: 0.0003417
轨道倾角: 70.001°
近地点辐角 268.318°
升交点赤经 232.699°
平近点角 91.759°
近地点: 569.651km
远地点: 574.401km
周期: 96.106分钟
每日圈数: 14.983398
详细信息
固有亮度:
5
最大亮度:
2.5
卫星平台:
Starlink V1.0
覆盖范围:
全球
运营商:
太空探索技术公司
运营商所在国:
美国
制造商(研发单位):
太空探索技术公司
制造商所在国:
美国
使用方式:
暂无
卫星简介
Starlink 计划是 SpaceX 推出的全球卫星互联网项目,通过发射低轨道卫星,为全球尤其是偏远地区提供高速、低延迟的互联网服务。自 2019 年起,Starlink 已部署数千颗卫星,旨在缩小全球数字鸿沟,推动互联网普及。该项目还为军事、航空等行业提供通信支持,带来广泛经济效益。
2D轨道图
3D轨道图
轨道高度分析图
轨道倾角分析图
轨道综合分析图
查看轨道综合分析图